Weather History for Milford, UT

Change the Weather History Date:

Wednesday, February 13, 2013

  Actual Average Record
Temperature  
Mean Temperature 26 °F -  
Max Temperature 41 °F 42 °F 68 °F (2014)
Min Temperature 12 °F 21 °F -4 °F (2004)
Degree Days  
Heating Degree Days 38    
Moisture  
Dew Point 18 °F    
Average Humidity 70    
Maximum Humidity 88    
Minimum Humidity 38    
Precipitation  
Precipitation 0.00 in - - ()
Sea Level Pressure  
Sea Level Pressure 30.37 in    
Wind  
Wind Speed 4 mph (NNW)    
Max Wind Speed 12 mph    
Max Gust Speed -    
Visibility 10 miles    
Events      
Averages and records for this station are not official NWS values.
T = Trace of Precipitation, MM = Missing Value Source: NWS Daily Summary

Daily Weather History Graph

Daily Weather History Graph

Search for Another Location

Airport:

Trip Planner

Search our weather history database for the weather conditions in past years. The results will help you decide how hot, cold, wet, or windy it might be!

Date:

Astronomy

Feb. 13, 2013 Rise Set
Actual Time 7:24 AM MST 6:08 PM MST
Civil Twilight 6:57 AM MST 6:35 PM MST
Nautical Twilight 6:26 AM MST 7:06 PM MST
Astronomical Twilight 5:55 AM MST 7:37 PM MST
Moon 8:59 AM MST (2/13) 10:10 PM MST (2/13)
Length of Visible Light 11h 38m
Length of Day
10h 43m
Waxing Crescent, 14% of the Moon is Illuminated
Feb 13
Waxing Crescent
Feb 17
First Quarter
Feb 25
Full
Mar 4
Last Quarter
Mar 11
New

Hourly Weather History & Observations

Time (MST) Temp. Windchill Dew Point Humidity Pressure Visibility Wind Dir Wind Speed Gust Speed Precip Events Conditions
12:52 AM 19.0 °F 11.1 °F 15.1 °F 85% 30.42 in 10.0 mi NNW 5.8 mph - N/A   Mostly Cloudy
1:52 AM 18.0 °F - 12.9 °F 81% 30.40 in 10.0 mi Calm Calm - N/A   Clear
2:52 AM 17.1 °F - 12.9 °F 84% 30.41 in 10.0 mi Calm Calm - N/A   Mostly Cloudy
3:52 AM 15.1 °F - 10.0 °F 80% 30.40 in 10.0 mi Calm Calm - N/A   Clear
4:52 AM 15.1 °F 9.4 °F 10.9 °F 84% 30.40 in 10.0 mi South 3.5 mph - N/A   Clear
5:52 AM 12.9 °F 6.9 °F 9.0 °F 84% 30.41 in 10.0 mi WSW 3.5 mph - N/A   Clear
6:52 AM 16.0 °F 8.8 °F 10.9 °F 81% 30.42 in 10.0 mi West 4.6 mph - N/A   Clear
7:52 AM 14.0 °F 8.2 °F 10.9 °F 88% 30.44 in 10.0 mi SSW 3.5 mph - N/A   Clear
8:52 AM 21.9 °F 17.2 °F 17.1 °F 82% 30.44 in 10.0 mi South 3.5 mph - N/A   Clear
9:52 AM 28.9 °F - 19.9 °F 69% 30.42 in 10.0 mi Calm Calm - N/A   Clear
10:52 AM 30.9 °F 25.2 °F 19.0 °F 61% 30.42 in 10.0 mi North 5.8 mph - N/A   Clear
11:52 AM 34.0 °F 26.6 °F 21.0 °F 59% 30.41 in 10.0 mi North 9.2 mph - N/A   Clear
12:52 PM 36.0 °F 29.0 °F 21.9 °F 57% 30.37 in 10.0 mi North 9.2 mph - N/A   Clear
1:52 PM 37.9 °F 32.7 °F 23.0 °F 55% 30.34 in 10.0 mi North 6.9 mph - N/A   Clear
2:52 PM 39.9 °F 33.4 °F 23.0 °F 51% 30.32 in 10.0 mi North 10.4 mph - N/A   Clear
3:52 PM 41.0 °F 34.3 °F 23.0 °F 49% 30.32 in 10.0 mi North 11.5 mph - N/A   Clear
4:52 PM 39.9 °F 33.4 °F 23.0 °F 51% 30.31 in 10.0 mi North 10.4 mph - N/A   Clear
5:52 PM 36.0 °F 29.0 °F 24.1 °F 62% 30.32 in 10.0 mi North 9.2 mph - N/A   Clear
6:52 PM 30.9 °F 23.5 °F 24.1 °F 76% 30.34 in 10.0 mi NNW 8.1 mph - N/A   Clear
7:52 PM 30.0 °F 25.2 °F 21.9 °F 72% 30.35 in 10.0 mi North 4.6 mph - N/A   Clear
8:52 PM 28.0 °F 24.2 °F 21.9 °F 78% 30.32 in 10.0 mi ENE 3.5 mph - N/A   Clear
9:52 PM 26.1 °F 21.9 °F 23.0 °F 88% 30.31 in 10.0 mi West 3.5 mph - N/A   Clear
10:52 PM 25.0 °F 19.3 °F 21.0 °F 85% 30.31 in 10.0 mi WNW 4.6 mph - N/A   Clear
11:52 PM 25.0 °F 20.7 °F 21.0 °F 85% 30.30 in 10.0 mi WNW 3.5 mph - N/A   Clear